Location: ????????
(55.3939°N, 37.4780°E)
Time: 06:45:28
(UTC+00:00)

Cosmos 2298 Rocket - Pass Details

Date: 14 April 2026
Orbit: 772 x 782 km, 74.0° (Epoch: 12 May)

Event Time Altitude Azimuth Distance (km) Brightness Sun altitude
Exits shadow 20:20:47 47° 214° (SSW) 1,029 4.3 -23.4°
Maximum altitude 20:22:22 85° 298° (WNW) 790 4.0 -23.4°
Drops below altitude 10° 20:27:43 10° 27° (NNE) 2,346 7.1 -23.7°
Sets 20:30:08 0° 28° (NNE) 3,280 7.9 -23.8°
